Location: Olomouc
(49.5830°N, 17.2500°E)
Time: 20:51:20
(UTC+02:00)

ISS - Pass Details

Date: 13 May 2021
Orbit: 417 x 422 km, 51.6° (Epoch: 14 June)

Event Time Altitude Azimuth Distance (km) Brightness Sun altitude
Exits shadow 00:30:56 22° 72° (ENE) 965 -1.8 -21.9°
Drops below altitude 10° 00:32:11 11° 72° (ENE) 1,460 -0.9 -22.0°
Sets 00:34:25 0° 73° (ENE) 2,375 0.2 -22.0°
